Location: Austin
(30.3000°N, 97.7500°W)
Time: 11:53:09
(UTC-05:00)

CZ-2C R/B - Pass Details

Date: 26 May 2023
Orbit: 351 x 453 km, 35.0° (Epoch: 30 May)

Event Time Altitude Azimuth Distance (km) Brightness Sun altitude
Rises 21:11:41 0° 290° (WNW) 2,186 6.4 -9.7°
Reaches altitude 10° 21:13:48 10° 297° (WNW) 1,327 4.9 -10.1°
Maximum altitude 21:16:42 45° 12° (NNE) 486 1.2 -10.6°
Enters shadow 21:19:05 14° 85° (E) 1,124 2.5 -11.1°
